Weather History for KCRS - December, 2012

Change the Weather History Date:

Saturday, December 22, 2012

  Actual Average (KACT) Record (KACT)
Temperature  
Mean Temperature 50 °F 47 °F  
Max Temperature 66 °F 58 °F 76 °F (1941)
Min Temperature 35 °F 36 °F 4 °F (1929)
Degree Days  
Heating Degree Days 14 18  
Month to date heating degree days 358  
Since 1 July heating degree days 686  
Cooling Degree Days 0 0  
Month to date cooling degree days 0  
Year to date cooling degree days 2792  
Moisture  
Dew Point 33 °F    
Average Humidity 48    
Maximum Humidity 67    
Minimum Humidity 29    
Precipitation  
Precipitation 0.00 in 0.10 in 1.52 in (1910)
Month to date precipitation 1.97  
Year to date precipitation 33.91  
Snow  
Snow 0.00 in 0.00 in T in (2004)
Month to date snowfall 0.0  
Since 1 July snowfall 0.1  
Snow Depth -    
Sea Level Pressure  
Sea Level Pressure 30.23 in    
Wind  
Wind Speed 10 mph (South)    
Max Wind Speed 22 mph    
Max Gust Speed 32 mph    
Visibility 10 miles    
Events      
T = Trace of Precipitation, MM = Missing Value Source: NWS Daily Summary

Daily Weather History Graph

Daily Weather History Graph

Search for Another Location

Airport or City:

Trip Planner

Search our weather history database for the weather conditions in past years. The results will help you decide how hot, cold, wet, or windy it might be!

Date:

Astronomy

Dec. 22, 2012 Rise Set
Actual Time 7:22 AM CST 5:26 PM CST
Civil Twilight 6:55 AM CST 5:53 PM CST
Nautical Twilight 6:25 AM CST 6:23 PM CST
Astronomical Twilight 5:55 AM CST 6:53 PM CST
Moon 1:34 PM CST (12/22) 2:19 AM CST (12/22)
Length of Visible Light 10h 57m
Length of Day
10h 03m
Waxing Gibbous, 74% of the Moon is Illuminated
Dec 22
Waxing Gibbous
Dec 28
Full
Jan 4
Last Quarter
Jan 11
New
Jan 18
First Quarter

Hourly Weather History & Observations

Time (CST) Temp. Windchill Dew Point Humidity Pressure Visibility Wind Dir Wind Speed Gust Speed Precip Events Conditions
12:53 AM 39.9 °F 35.1 °F 21.0 °F 47% 30.34 in 10.0 mi South 6.9 mph - N/A   Clear
1:53 AM 37.9 °F 32.7 °F 19.0 °F 47% 30.33 in 10.0 mi South 6.9 mph - N/A   Clear
2:53 AM 37.0 °F 31.0 °F 19.9 °F 50% 30.33 in 10.0 mi South 8.1 mph - N/A   Clear
3:53 AM 39.0 °F 33.4 °F 19.0 °F 45% 30.31 in 10.0 mi South 8.1 mph - N/A   Clear
4:53 AM 37.0 °F 31.6 °F 19.0 °F 48% 30.31 in 10.0 mi South 6.9 mph - N/A   Clear
5:53 AM 37.0 °F 29.8 °F 18.0 °F 46% 30.31 in 10.0 mi South 10.4 mph - N/A   Clear
6:53 AM 35.1 °F 28.6 °F 19.0 °F 52% 30.33 in 10.0 mi South 8.1 mph - N/A   Clear
7:53 AM 37.9 °F 32.1 °F 18.0 °F 45% 30.34 in 10.0 mi South 8.1 mph - N/A   Clear
8:53 AM 43.0 °F 38.2 °F 19.0 °F 38% 30.33 in 10.0 mi South 8.1 mph - N/A   Clear
9:53 AM 51.1 °F - 19.9 °F 29% 30.33 in 10.0 mi SSW 8.1 mph - N/A   Clear
10:53 AM 59.0 °F - 33.1 °F 38% 30.31 in 10.0 mi South 12.7 mph - N/A   Clear
11:53 AM 63.0 °F - 37.9 °F 40% 30.27 in 10.0 mi SSW 15.0 mph 21.9 mph N/A   Clear
12:53 PM 64.9 °F - 39.9 °F 40% 30.23 in 10.0 mi SSW 21.9 mph 29.9 mph N/A   Clear
1:53 PM 64.9 °F - 41.0 °F 42% 30.19 in 10.0 mi SSW 21.9 mph 32.2 mph N/A   Clear
2:53 PM 66.9 °F - 41.0 °F 39% 30.16 in 10.0 mi SSW 18.4 mph 24.2 mph N/A   Clear
3:53 PM 66.0 °F - 43.0 °F 43% 30.16 in 10.0 mi SSW 11.5 mph - N/A   Partly Cloudy
4:53 PM 64.9 °F - 43.0 °F 45% 30.14 in 10.0 mi South 17.3 mph 23.0 mph N/A   Clear
5:53 PM 63.0 °F - 43.0 °F 48% 30.13 in 10.0 mi South 8.1 mph - N/A   Clear
6:53 PM 60.1 °F - 44.1 °F 55% 30.12 in 10.0 mi South 9.2 mph - N/A   Clear
7:53 PM 61.0 °F - 46.0 °F 58% 30.09 in 10.0 mi South 13.8 mph - N/A   Clear
8:53 PM 61.0 °F - 46.9 °F 60% 30.11 in 10.0 mi South 9.2 mph - N/A   Scattered Clouds
9:53 PM 60.1 °F - 46.9 °F 62% 30.10 in 10.0 mi South 8.1 mph - N/A   Overcast
10:53 PM 59.0 °F - 48.0 °F 67% 30.09 in 10.0 mi South 9.2 mph - N/A   Mostly Cloudy
11:53 PM 60.1 °F - 48.9 °F 67% 30.07 in 10.0 mi South 10.4 mph - N/A   Mostly Cloudy